This demonstration page uses our WeatherBlox Daily Observations layout. Learn more.

Left ArrowRight Arrow

Hourly Observations for November 5, 2020

Temp ( °F °C ) Dew Point ( °F °C ) Humidity (%) Winds ( mph kmh ) Pressure ( in mb ) Visibility ( mi km ) Precip ( " mm )
12:54 am 00:54 Clear 43 6.1 36 2.2 76 76 Calm 30.06 1018 10 16.0934 0 0
1:54 am 01:54 Clear 42 5.6 37 2.8 82 82 NE 3 6 30.07 1018 10 16.0934 0 0
2:54 am 02:54 Clear 42 5.6 36 2.2 79 79 Calm 30.09 1019 10 16.0934 0 0
3:54 am 03:54 Clear 37 2.8 33 0.6 86 86 N 6 9 30.1 1019 10 16.0934 0 0
4:54 am 04:54 Clear 39 3.9 35 1.7 86 86 Calm 30.12 1020 10 16.0934 0 0
5:54 am 05:54 Clear 36 2.2 32 0 86 86 Calm 30.14 1021 10 16.0934 0 0
6:54 am 06:54 Clear 33 0.6 29 -1.7 85 85 N 6 9 30.16 1022 10 16.0934 0 0
7:54 am 07:54 Sunny 41 5 34 1.1 76 76 Calm 30.18 1022 10 16.0934 0 0
8:54 am 08:54 Sunny 51 10.6 38 3.3 61 61 Calm 30.18 1022 10 16.0934 0 0
9:54 am 09:54 Sunny 62 16.7 39 3.9 43 43 NNW 7 11 30.18 1022 10 16.0934 0 0
10:54 am 10:54 Sunny 69 20.6 39 3.9 33 33 ENE 9 15 30.17 1022 10 16.0934 0 0
11:54 am 11:54 Sunny 72 22.2 39 3.9 30 30 Calm 30.16 1021 10 16.0934 0 0
12:54 pm 12:54 Sunny 75 23.9 39 3.9 27 27 ENE 7 11 30.16 1021 10 16.0934 0 0
1:54 pm 13:54 Sunny 76 24.4 38 3.3 25 25 N 5 7 30.14 1021 10 16.0934 0 0
2:54 pm 14:54 Sunny 77 25 36 2.2 23 23 ENE 7 11 30.12 1020 10 16.0934 0 0
3:54 pm 15:54 Sunny 76 24.4 36 2.2 23 23 NE 8 13 30.12 1020 10 16.0934 0 0
4:54 pm 16:54 Sunny 68 20 38 3.3 33 33 ENE 5 7 30.13 1020 10 16.0934 0 0
5:54 pm 17:54 Clear 56 13.3 36 2.2 47 47 Calm 30.15 1021 10 16.0934 0 0
6:54 pm 18:54 Clear 51 10.6 36 2.2 56 56 Calm 30.16 1022 10 16.0934 0 0
7:54 pm 19:54 Clear 49 9.4 34 1.1 56 56 Calm 30.16 1021 7 11.26538 0 0
8:54 pm 20:54 Clear 48 8.9 34 1.1 58 58 Calm 30.15 1021 9 14.48406 0 0
9:54 pm 21:54 Hazy 41 5 32 0 70 70 NNW 3 6 30.14 1021 5 8.0467 0 0
10:54 pm 22:54 Clear 43 6.1 33 0.6 68 68 Calm 30.13 1020 7 11.26538 0 0
11:54 pm 23:54 Clear 44 6.7 33 0.6 65 65 Calm 30.11 1020 7 11.26538 0 0

Powered by AerisWeather